Date String (YYYY-MM-DD hh:mm:ss) UTC,Instrument flags,Ambient pressure (hPa),Sample flow (lpm),Bypass flow (lpm),Sample temperature (°C),Ambient temperature (°C),ASC tube jacket temperature (°C),LED temperature (°C),Box temperature (°C),Sample RH (%),Span deviation,Mass concentration (μg/m³),Mass concentration (μg/m³),Mass concentration (μg/m³)
DateTimeUTC,F1_M11,P_M11,Q1_M11,Q2_M11,T1_M11,T2_M11,T3_M11,T4_M11,T5_M11,U1_M11,ZSPAN_M11,X0_M11,X2_M11,X1_M11
2022-08-12 20:00:00,,0830.9,5.00,0.00,29.2,28.1,00.0,37.9,31.2,30.4,0000.0,0013.36,0004.77,0003.87
2022-08-12 20:01:00,,0831.0,5.00,0.00,29.3,28.0,00.0,37.9,31.2,30.2,0000.0,0013.70,0004.80,0003.90
2022-08-12 20:02:00,,0830.9,4.99,0.00,29.2,27.5,00.0,37.9,31.0,30.4,0000.0,0014.04,0004.88,0003.92
2022-08-12 20:03:00,,0830.9,5.01,0.00,29.2,27.2,00.0,37.9,31.0,30.2,0000.0,0014.06,0004.94,0003.95
2022-08-12 20:04:00,,0830.9,5.00,0.00,29.1,27.2,00.0,37.8,30.9,30.6,0000.0,0013.81,0004.99,0003.97
2022-08-12 20:05:00,,0830.9,4.99,0.00,29.1,27.3,00.0,37.8,30.9,30.4,0000.0,0013.76,0005.05,0003.99
2022-08-12 20:06:00,,0830.9,5.00,0.00,29.1,27.5,00.0,37.8,30.9,29.7,0000.0,0013.88,0005.12,0004.00
2022-08-12 20:07:00,,0830.9,5.00,0.00,29.1,27.7,00.0,37.9,31.0,29.6,0000.0,0013.56,0005.07,0004.00
2022-08-12 20:08:00,,0830.9,5.00,0.00,29.2,27.9,00.0,37.9,31.1,29.8,0000.0,0012.90,0005.09,0004.00
2022-08-12 20:09:00,,0831.0,5.00,0.00,29.2,28.1,00.0,37.9,31.2,29.1,0000.0,0013.70,0005.13,0004.00
2022-08-12 20:10:00,,0831.0,5.00,0.00,29.3,28.0,00.0,37.9,31.2,27.5,0000.0,0013.65,0005.10,0003.97
2022-08-12 20:11:00,,0830.9,4.99,0.00,29.2,27.4,00.0,37.9,31.0,27.6,0000.0,0013.70,0005.06,0003.94
2022-08-12 20:12:00,,0830.9,4.99,0.00,29.2,27.1,00.0,37.9,31.0,28.2,0000.0,0013.57,0005.03,0003.92
2022-08-12 20:13:00,,0830.9,5.00,0.00,29.1,27.1,00.0,37.8,30.9,28.6,0000.0,0013.48,0005.00,0003.90
2022-08-12 20:14:00,,0830.9,4.98,0.00,29.1,27.3,00.0,37.8,30.9,27.8,0000.0,0013.69,0004.93,0003.87
2022-08-12 20:15:00,,0830.9,5.02,0.00,29.1,27.4,00.0,37.8,30.9,27.9,0000.0,0013.91,0004.87,0003.85
2022-08-12 20:16:00,,0830.9,5.00,0.00,29.1,27.6,00.0,37.9,31.0,28.6,0000.0,0013.86,0004.87,0003.83
2022-08-12 20:17:00,,0830.9,5.00,0.00,29.2,27.9,00.0,37.9,31.1,28.9,0000.0,0013.64,0004.86,0003.82
2022-08-12 20:18:00,,0830.9,5.00,0.00,29.2,28.1,00.0,37.9,31.2,29.0,0000.0,0013.86,0004.85,0003.80
2022-08-12 20:19:00,,0830.9,5.00,0.00,29.3,28.2,00.0,37.9,31.3,27.2,0000.0,0014.06,0004.79,0003.76
2022-08-12 20:20:00,,0830.9,5.00,0.00,29.3,27.8,00.0,37.9,31.1,26.4,0000.0,0013.06,0004.70,0003.73
2022-08-12 20:21:00,,0830.8,5.01,0.00,29.2,27.2,00.0,37.9,31.0,27.3,0000.0,0013.17,0004.66,0003.72
2022-08-12 20:22:00,,0830.8,5.00,0.00,29.2,27.1,00.0,37.9,31.0,28.7,0000.0,0013.18,0004.66,0003.72
2022-08-12 20:23:00,,0830.8,4.99,0.00,29.2,27.2,00.0,37.9,30.9,28.4,0000.0,0012.79,0004.62,0003.70
2022-08-12 20:24:00,,0830.8,5.01,0.00,29.1,27.4,00.0,37.9,30.9,28.5,0000.0,0012.14,0004.58,0003.68
2022-08-12 20:25:00,,0830.8,5.01,0.00,29.1,27.6,00.0,37.9,31.0,27.9,0000.0,0011.91,0004.53,0003.66
2022-08-12 20:26:00,,0830.8,4.99,0.00,29.2,27.8,00.0,37.9,31.1,27.9,0000.0,0011.75,0004.50,0003.65
2022-08-12 20:27:00,,0830.8,5.00,0.00,29.2,28.0,00.0,37.9,31.2,28.1,0000.0,0011.70,0004.46,0003.63
2022-08-12 20:28:00,,0830.8,4.99,0.00,29.3,28.2,00.0,38.0,31.3,28.8,0000.0,0011.60,0004.44,0003.61
2022-08-12 20:29:00,,0830.9,5.01,0.00,29.3,28.2,00.0,38.0,31.3,28.1,0000.0,0011.90,0004.48,0003.62
2022-08-12 20:30:00,,0830.9,4.99,0.00,29.3,27.6,00.0,37.9,31.2,28.6,0000.0,0012.05,0004.51,0003.64
2022-08-12 20:31:00,,0830.8,5.01,0.00,29.3,27.2,00.0,37.9,31.1,28.6,0000.0,0012.59,0004.56,0003.66
2022-08-12 20:32:00,,0830.8,4.99,0.00,29.2,27.2,00.0,37.9,31.0,28.5,0000.0,0013.12,0004.67,0003.68
2022-08-12 20:33:00,,0830.8,5.00,0.00,29.2,27.3,00.0,37.9,30.9,28.8,0000.0,0012.94,0004.66,0003.67
2022-08-12 20:34:00,,0830.8,4.99,0.00,29.2,27.5,00.0,37.9,31.0,28.8,0000.0,0013.48,0004.68,0003.69
2022-08-12 20:35:00,,0830.8,5.01,0.00,29.2,27.7,00.0,37.9,31.1,27.6,0000.0,0014.35,0004.65,0003.70
2022-08-12 20:36:00,,0830.8,4.99,0.00,29.2,27.9,00.0,38.0,31.2,27.9,0000.0,0014.58,0004.68,0003.70
2022-08-12 20:37:00,,0830.8,5.00,0.00,29.3,28.1,00.0,38.0,31.2,27.3,0000.0,0014.81,0004.72,0003.70
2022-08-12 20:38:00,,0830.8,5.00,0.00,29.3,28.1,00.0,38.0,31.3,26.0,0000.0,0014.42,0004.68,0003.69
2022-08-12 20:39:00,,0830.8,5.01,0.00,29.3,27.6,00.0,38.0,31.1,26.0,0000.0,0014.84,0004.63,0003.67
2022-08-12 20:40:00,,0830.8,5.00,0.00,29.2,27.2,00.0,37.9,31.0,27.3,0000.0,0014.27,0004.60,0003.67
2022-08-12 20:41:00,,0830.8,5.00,0.00,29.2,27.2,00.0,37.9,31.0,26.1,0000.0,0013.74,0004.56,0003.67
2022-08-12 20:42:00,,0830.8,5.00,0.00,29.2,27.3,00.0,37.9,30.9,26.7,0000.0,0013.27,0004.54,0003.67
2022-08-12 20:43:00,,0830.7,5.01,0.00,29.2,27.5,00.0,37.9,31.0,27.9,0000.0,0012.96,0004.51,0003.66
2022-08-12 20:44:00,,0830.7,4.99,0.00,29.2,27.7,00.0,37.9,31.0,27.8,0000.0,0013.47,0004.53,0003.68
2022-08-12 20:45:00,,0830.6,5.00,0.00,29.2,27.9,00.0,37.9,31.1,27.4,0000.0,0013.24,0004.56,0003.68
2022-08-12 20:46:00,,0830.6,4.99,0.00,29.3,28.1,00.0,38.0,31.2,27.3,0000.0,0013.04,0004.61,0003.69
2022-08-12 20:47:00,,0830.6,5.01,0.00,29.3,27.9,00.0,38.0,31.2,27.9,0000.0,0012.69,0004.64,0003.70
2022-08-12 20:48:00,,0830.6,5.00,0.00,29.2,27.3,00.0,37.9,31.0,28.7,0000.0,0012.37,0004.65,0003.72
2022-08-12 20:49:00,,0830.6,5.01,0.00,29.2,27.1,00.0,37.9,31.0,28.9,0000.0,0012.30,0004.71,0003.75
2022-08-12 20:50:00,,0830.6,5.01,0.00,29.2,27.2,00.0,37.9,30.9,29.5,0000.0,0012.04,0004.79,0003.78
2022-08-12 20:51:00,,0830.6,4.99,0.00,29.1,27.3,00.0,37.9,30.9,29.5,0000.0,0012.97,0004.83,0003.79
2022-08-12 20:52:00,,0830.6,5.00,0.00,29.2,27.5,00.0,37.9,31.0,29.8,0000.0,0013.37,0004.87,0003.79
2022-08-12 20:53:00,,0830.6,4.99,0.00,29.2,27.7,00.0,37.9,31.1,29.9,0000.0,0014.07,0004.91,0003.80
2022-08-12 20:54:00,,0830.6,5.00,0.00,29.2,27.9,00.0,37.9,31.2,29.6,0000.0,0014.16,0004.91,0003.81
2022-08-12 20:55:00,,0830.5,5.00,0.00,29.3,28.1,00.0,38.0,31.3,29.3,0000.0,0013.33,0004.86,0003.81
2022-08-12 20:56:00,,0830.5,5.01,0.00,29.3,28.0,00.0,38.0,31.2,28.7,0000.0,0013.64,0004.82,0003.80
2022-08-12 20:57:00,,0830.5,4.99,0.00,29.3,27.4,00.0,37.9,31.1,28.5,0000.0,0013.34,0004.81,0003.80
2022-08-12 20:58:00,,0830.5,5.01,0.00,29.2,27.2,00.0,37.9,31.0,28.3,0000.0,0014.17,0004.82,0003.80
2022-08-12 20:59:00,,0830.5,4.99,0.00,29.2,27.2,00.0,37.9,31.0,28.6,0000.0,0014.61,0004.83,0003.80
